539  
ASCA44 KEWX 211910  
RWRMX  
 
LATIN AMERICA AND CARIBBEAN REGIONAL WEATHER ROUNDUP  
NATIONAL WEATHER SERVICE AUSTIN/SAN ANTONIO TX  
100 PM CST TUE NOV 21 2017  
 
NOTE: "FAIR" INDICATED FEW OR NO CLOUDS BELOW 12,000 FEET WITH NO  
SIGNIFICANT WEATHER AND/OR S TO VISIBILITY
.  
 
BAJA CALIFORNIA  
 
CITY SKY/WX TMP DP RH WIND PRES REMARKS
 
LORETO MOSUNNY 79 68 69 NE12 29.96F  
MEXICALI MOSUNNY 75 21 13 NW6 30.13F  
S.J. DEL CABO SUNNY 84 52 32 CALM 29.96  
TIJUANA MOSUNNY 88 27 11 NW10 30.08  
 
NORTHWESTERN MEXICO  
 
CITY SKY/WX TMP DP RH WIND PRES REMARKS
 
CULIACAN MOSUNNY 88 55 33 CALM 29.90F  
DURANGO MOSUNNY 70 14 11 NE3 30.20F  
GUAYMAS PTSUNNY 84 46 26 N12 29.92F  
HERMOSILLO MOSUNNY 82 34 17 CALM 30.02F  
CD. JUAREZ PTSUNNY 66 10 11 NW12 30.16F  
LOS MOCHIS PTSUNNY 81 46 30 NW15 29.95F  
OBREGON CLOUDY 81 43 26 NW6 29.92F  
 
NORTHEASTERN MEXICO  
 
CITY SKY/WX TMP DP RH WIND PRES REMARKS
 
CHIHUAHUA PTSUNNY 72 30 21 N3 30.17F  
MATAMOROS MOSUNNY 82 61 47 S16 29.85  
MONCLOVA N/A N/A N/A N/A MISG N/A  
NUEVO LAREDO MOSUNNY 75 54 46 CALM 29.86F  
PIEDRAS NEGRAS MOSUNNY 70 52 52 SE5 29.90  
REYNOSA MOSUNNY 75 57 53 SE7 29.85F  
SALTILLO MOSUNNY 77 39 25 NW7 30.14S  
TORREON PTSUNNY 75 37 25 CALM 30.08  
CD. VICTORIA MOSUNNY 82 54 36 MISG 29.86F  
 
WESTERN MEXICO  
 
CITY SKY/WX TMP DP RH WIND PRES REMARKS
 
AGUASCALIENTES MOSUNNY 73 34 23 W5 30.22F  
COLIMA MOSUNNY 81 66 61 S7 30.04S  
DEL BAJIO MOSUNNY 75 41 29 W10 30.24F  
GUADALAJARA SUNNY 77 32 19 NW7 30.14  
MANZANILLO MOSUNNY 88 73 62 SW9 29.87 HX 96  
MAZATLAN MOSUNNY 86 70 58 W9 29.90F HX 90  
P. VALLARTA SUNNY 86 70 58 SW7 29.89F HX 90  
ZACATECAS MOSUNNY 72 50 46 NW6 30.26  
 
CENTRAL MEXICO  
 
CITY SKY/WX TMP DP RH WIND PRES REMARKS
 
CUERNAVACA MOSUNNY 79 54 41 S6 30.06F  
MEXICO CITY SUNNY 70 32 24 N3 30.24F  
MORELIA MOSUNNY 75 45 33 NW8 30.19  
POZA RICA MOSUNNY 84 70 61 N5 29.92F  
PUEBLA MOSUNNY 70 39 32 SW10 30.23F  
QUERETARO MOSUNNY 73 41 31 W13 30.22F  
S. LUIS POTOSI MOSUNNY 75 10 8 SW3 30.15  
TAMPICO MOSUNNY 81 64 57 MISG 29.86F  
TOLUCA MOSUNNY 64 34 32 NW7 30.30  
 
SOUTHERN MEXICO  
 
CITY SKY/WX TMP DP RH WIND PRES REMARKS
 
ACAPULCO SUNNY 86 75 70 SW6 29.85F HX 95  
B. DE HUATULCO SUNNY N/A N/A N/A S10 29.90F  
OAXACA MOSUNNY 77 39 25 S2 30.11F  
P. ESCONDIDO MOSUNNY 79 72 78 MISG 29.97F  
VERACRUZ MOSUNNY 81 66 61 CALM 29.87F  
ZIHUATANEJO MOSUNNY 90 75 62 W13 29.86F HX 100  
 
YUCATAN PENINSULA  
 
CITY SKY/WX TMP DP RH WIND PRES REMARKS
 
CAMPECHE MOSUNNY 81 70 69 N12 29.86F  
CANCUN MOSUNNY 81 64 57 N3 29.90F  
CHETUMAL MOSUNNY 82 66 57 CALM 29.89F  
CD. DEL CARMEN MOSUNNY N/A N/A N/A SE9 29.88F  
COZUMEL MOSUNNY 82 66 57 E6 29.88F  
MERIDA PTSUNNY 86 61 42 S8 29.88F  
MINATITLAN MOSUNNY 82 73 74 CALM 29.85F  
TAPACHULA N/A N/A N/A N/A MISG N/A  
TUX. GUTIERREZ MOSUNNY 82 63 51 NE9 29.91F  
VILLAHERMOSA MOSUNNY 82 66 57 E6 29.89F  
 
CENTRAL AMERICA  
 
CITY SKY/WX TMP DP RH WIND PRES REMARKS
 
BELIZE CITY PTSUNNY 82 70 65 E7 29.88F  
MANAGUA PTCLDY 90 70 51 SE9 29.77F HX 95  
 
CARIBBEAN  
 
CITY SKY/WX TMP DP RH WIND PRES REMARKS
 
ARUBA MOSUNNY 88 79 74 E15 29.77F HX 102  
CURACAO MOSUNNY 86 77 74 E13 29.80F HX 97  
KINGSTON PTSUNNY 82 79 89 SE8 29.80F HX 93  
NASSAU MOSUNNY 88 70 55 E9 29.94F HX 92  
SAN JUAN MOSUNNY 86 75 70 E16 29.88F HX 95  
SANTO DOMINGO MOSUNNY 84 77 79 SE9 29.86F HX 94  
ST. KITTS MOSUNNY 86 73 66 NE13 29.89S HX 93  
ST. MAARTEN MOSUNNY 84 72 65 E8 29.92S  
ST. THOMAS N/A 84 72 65 SE10 29.90  
 

 
 
 
 
CLICK HERE TO GO TO PREVIOUS BULLETINS.

The Nexlab HPC Page Main Text Page